This demonstration page uses our WeatherBlox Daily Observations layout. Learn more.

Left ArrowRight Arrow

39.01783, -85.05884

Hourly Observations for September 23, 2017

Temp ( °F °C ) Dew Point ( °F °C ) Humidity (%) Winds ( mph kmh ) Pressure ( in mb ) Visibility ( mi km ) Precip ( " mm )
12:52 am 00:52 Clear 72 22.2 67 19.4 84 84 Calm 30.04 1017 9 14 0.00 0.00
1:52 am 01:52 Clear 66 18.9 66 18.9 100 100 SSE 3 6 30.04 1017 9 14 0.00 0.00
2:52 am 02:52 Clear 66 18.9 66 18.9 100 100 Calm 30.04 1017 8 13 0.00 0.00
3:52 am 03:52 Clear 67 19.4 65 18.3 93 93 Calm 30.03 1017 9 14 0.00 0.00
4:52 am 04:52 Clear 66 18.9 66 18.9 100 100 Calm 30.04 1017 9 14 0.00 0.00
5:52 am 05:52 Mostly Clear 67 19.4 65 18.3 93 93 Calm 30.05 1018 8 13 0.00 0.00
6:52 am 06:52 Clear 69 20.6 66 18.9 90 90 NNE 3 6 30.06 1018 8 13 0.00 0.00
7:52 am 07:52 Partly Cloudy with Mist and Fog 66 18.9 66 18.9 100 100 Calm 30.09 1019 6 10 0.00 0.00
8:52 am 08:52 Hazy 74 23.3 69 20.6 85 85 ENE 5 7 30.10 1019 5 8 0.00 0.00
9:52 am 09:52 Sunny 78 25.6 68 20 71 71 NNE 6 9 30.11 1020 7 11 0.00 0.00
10:52 am 10:52 Sunny 82 27.8 68 20 63 63 ENE 5 7 30.11 1020 9 14 0.00 0.00
11:52 am 11:52 Sunny 84 28.9 68 20 59 59 NE 5 7 30.11 1020 10 16 0.00 0.00
12:52 pm 12:52 Mostly Sunny 85 29.4 66 18.9 53 53 ENE 7 11 30.09 1019 10 16 0.00 0.00
1:52 pm 13:52 Mostly Sunny 87 30.6 65 18.3 48 48 NE 10 17 30.08 1019 10 16 0.00 0.00
2:52 pm 14:52 Mostly Sunny 89 31.7 63 17.2 42 42 E 7 11 30.06 1018 10 16 0.00 0.00
3:52 pm 15:52 Mostly Sunny 89 31.7 64 17.8 43 43 ENE 10 17 30.05 1018 10 16 0.00 0.00
4:52 pm 16:52 Mostly Sunny 90 32.2 65 18.3 44 44 NNE 8 13 30.03 1017 10 16 0.00 0.00
5:52 pm 17:52 Mostly Sunny 88 31.1 64 17.8 45 45 E 8 13 30.04 1017 10 16 0.00 0.00
6:52 pm 18:52 Mostly Sunny 86 30 64 17.8 48 48 E 8 13 30.04 1017 10 16 0.00 0.00
7:52 pm 19:52 Mostly Clear 80 26.7 67 19.4 64 64 SSE 3 6 30.04 1017 10 16 0.00 0.00
8:52 pm 20:52 Mostly Clear 77 25 66 18.9 69 69 Calm 30.05 1018 10 16 0.00 0.00
9:52 pm 21:52 Mostly Clear 76 24.4 67 19.4 74 74 Calm 30.05 1018 10 16 0.00 0.00
10:52 pm 22:52 Clear 77 25 66 18.9 69 69 Calm 30.05 1018 10 16 0.00 0.00
11:52 pm 23:52 Clear 75 23.9 65 18.3 71 71 E 6 9 30.05 1018 10 16 0.00 0.00

Powered by AerisWeather